Date,TemperatureHighF,TemperatureAvgF,TemperatureLowF,DewpointHighF,DewpointAvgF,DewpointLowF,HumidityHigh,HumidityAvg,HumidityLow,PressureMaxIn,PressureMinIn,WindSpeedMaxMPH,WindSpeedAvgMPH,GustSpeedMaxMPH,PrecipitationSumIn
2013-1-1,41.0,29.2,23.0,35.0,26.3,21.0,95,89,71,30.43,30.29,1,0,2,0.00
2013-1-2,43.0,28.9,23.0,35.0,26.2,21.0,96,90,72,30.29,30.14,0,0,4,0.01
2013-1-3,46.0,31.1,21.0,40.0,27.7,19.0,96,88,68,30.14,30.05,5,0,13,0.02
2013-1-4,53.0,43.8,37.0,45.0,39.7,34.0,94,86,75,30.28,30.10,5,0,14,0.07
2013-1-5,44.0,38.7,36.0,43.0,37.1,34.0,96,94,91,30.16,30.07,1,0,4,0.08
2013-1-6,46.0,40.0,33.0,41.0,36.3,31.0,96,87,70,30.16,29.93,4,0,9,0.12
2013-1-7,48.0,44.8,41.0,47.0,42.4,39.0,95,91,86,30.14,29.81,6,2,14,0.49
2013-1-8,53.0,45.8,40.0,47.0,41.9,37.0,96,87,67,30.14,29.72,8,2,24,0.16
2013-1-9,53.0,39.4,30.0,42.0,34.7,28.0,94,84,60,29.91,29.67,10,1,19,0.37
2013-1-10,34.0,31.4,27.0,33.0,29.5,25.0,95,93,91,30.06,29.90,0,0,2,0.03
2013-1-11,36.0,28.7,22.0,30.0,25.5,20.0,95,88,64,30.27,30.06,1,0,3,0.05
2013-1-12,38.0,24.7,19.0,27.0,20.9,17.0,94,86,61,30.37,30.25,1,0,5,0.00
2013-1-13,35.0,24.0,17.0,26.0,19.9,15.0,93,84,62,30.44,30.36,1,0,4,0.01
2013-1-14,41.0,27.4,19.0,30.0,22.8,16.0,94,83,58,30.51,30.41,0,0,2,0.01
2013-1-15,44.0,29.8,24.0,34.0,25.6,21.0,95,85,62,30.63,30.51,2,0,5,0.00
2013-1-16,44.0,27.6,21.0,34.0,24.4,19.0,96,89,63,30.61,30.45,1,0,3,0.00
2013-1-17,49.0,29.2,22.0,37.0,26.0,20.0,96,89,62,30.46,30.25,1,0,3,0.01
2013-1-18,46.0,29.8,22.0,36.0,26.7,20.0,96,89,66,30.28,30.20,2,0,4,0.01
2013-1-19,33.0,28.7,25.0,31.0,27.2,24.0,95,93,91,30.32,30.27,1,0,2,0.00
2013-1-20,36.0,29.2,26.0,33.0,27.2,24.0,95,92,87,30.33,30.21,1,0,3,0.00
2013-1-21,34.0,28.7,25.0,33.0,26.9,23.0,96,93,92,30.22,30.09,1,0,3,0.00
2013-1-23,41.0,38.9,35.0,40.0,37.4,33.0,96,95,94,30.11,29.81,3,0,10,0.17
2013-1-24,45.0,37.9,29.0,39.0,34.3,27.0,96,87,67,30.17,30.00,1,0,5,0.17
2013-1-25,51.0,43.2,30.0,48.0,40.3,27.0,96,90,79,30.01,29.90,2,0,7,0.28
2013-1-26,46.0,37.0,29.0,39.0,33.7,27.0,95,88,71,30.00,29.83,4,0,10,0.04
2013-1-27,41.0,37.7,36.0,37.0,35.3,34.0,94,91,78,30.03,29.95,4,0,9,0.11
2013-1-28,40.0,38.2,37.0,38.0,36.4,35.0,95,94,92,30.06,29.96,3,1,11,0.45
2013-1-29,44.0,42.5,40.0,43.0,41.5,39.0,96,96,95,30.35,30.06,6,1,13,0.58
2013-1-30,46.0,44.3,42.0,45.0,43.3,41.0,96,96,95,30.36,30.31,2,0,6,0.44
2013-1-31,47.0,45.3,41.0,46.0,43.8,40.0,97,94,91,30.36,30.28,3,0,9,0.16